Regional Weather Roundup
Issued by NWS

Home | Current Version | Previous Version | Graphics & Text | Print | Product List | Glossary On
Versions: 1 2 3 4 5 6 7 8 9 10 11 12 13 14 15 16 17 18 19 20 21 22 23 24 25 26 27 28 29 30 31 32 33 34 35 36 37 38 39 40 41 42 43 44 45 46 47 48 49 50
000
ASUS45 KCYS 021410
RWRWY

WYOMING REGIONAL WEATHER ROUNDUP
NATIONAL WEATHER SERVICE CHEYENNE WY
700 AM MST FRI DEC 02 2016

NOTE:  "FAIR" INDICATES FEW OR NO CLOUDS BELOW 12,000 FEET
WITH NO SIGNIFICANT WEATHER AND/OR OBSTRUCTIONS TO VISIBILITY.

WYZ001-021500-
YELLOWSTONE NATIONAL PARK

CITY           SKY/WX    TMP DP  RH WIND       PRES   REMARKS
LK YELLOWSTONE   N/A     10   9  95 CALM      30.12R
W YELLOWSTONE  NOT AVBL

$$
WYZ002>013-054>058-071-098>099-021500-
NORTHERN WYOMING

CITY           SKY/WX    TMP DP  RH WIND       PRES   REMARKS
JACKSON        FAIR       9   7  92 N5        30.16R WCI   0
CODY           CLOUDY    25  14  63 SW7       30.16R WCI  17
GREYBULL       CLOUDY    26  20  77 E3        30.18R
WORLAND        CLOUDY    25  22  88 S5        30.18R WCI  19
SHERIDAN       CLOUDY    28  24  85 CALM      30.16R
BUFFALO        CLOUDY    28  15  58 CALM      30.14R
GILLETTE       FAIR      22  21  96 W9        30.14R WCI  12
HULETT         FAIR      21  18  86 SW9       30.14R WCI  11
NEWCASTLE      FAIR      19  19 100 N6        30.15S WCI  11

$$
WYZ014>020-022>026-101>103-021500-
CENTRAL WYOMING

CITY           SKY/WX    TMP DP  RH WIND       PRES   REMARKS
BIG PINEY      FAIR       4   0  83 CALM      30.12R
PINEDALE       FAIR       0  -4  85 N7        30.12R WCI -13
DUBOIS         FAIR       7   1  78 W12       30.10R WCI  -9
LANDER         FLURRIES  21  18  88 NW7       30.14R WCI  12
RIVERTON       FAIR      17  11  77 NW12      30.15R WCI   4
CASPER         FLURRIES  23  22  96 W5        30.14R WCI  17
DOUGLAS        CLOUDY    23  20  88 NW5       30.15R WCI  17

$$
WYZ021-027>030-104>119-021500-
SOUTHERN WYOMING

CITY           SKY/WX    TMP DP  RH WIND       PRES   REMARKS
EVANSTON       FOG       14  10  84 N7        30.10R VSB 1/4 WCI   4
FORT BRIDGER   FAIR      11  10  99 W7        30.13R WCI   0
ROCK SPRINGS   FAIR       9   6  88 W6        30.11R WCI  -1
DIXON          FAIR       8   4  84 NE7       30.13R WCI  -3
RAWLINS        CLOUDY    11   7  84 CALM      30.10R
SARATOGA       PTSUNNY    1   1 100 CALM      30.09S
LARAMIE        FAIR      11   9  92 NE5       30.06R WCI   3
CHEYENNE       FAIR      22  13  68 NW7       30.09R WCI  13
TORRINGTON     FAIR      17  14  88 CALM      30.15R
PINE BLUFFS    FAIR      18  14  86 CALM      30.13R

$$



USA.gov is the U.S. government's official web portal to all federal, state and local government web resources and services.